Location: ??????
(38.0131°N, 23.7723°E)
Time: 01:18:35
(UTC+00:00)

Cosmos 2263 Rocket - Pass Details

Date: 17 October 2021
Orbit: 825 x 847 km, 71.0° (Epoch: 04 December)

Event Time Altitude Azimuth Distance (km) Brightness Sun altitude
Rises 17:05:38 0° 343° (NNW) 3,370 5.6 -16.7°
Reaches altitude 10° 17:08:10 10° 349° (N) 2,432 4.7 -17.2°
Maximum altitude 17:13:32 48° 63° (ENE) 1,076 2.4 -18.3°
Enters shadow 17:15:54 30° 119° (ESE) 1,441 2.9 -18.8°
